SIF141 OPKC-OPLA

Flight info

Callsign SIF141
Flight time 1h 28m
Altitude 37000
Route BADUL J112 MIMAL
Aircraft A320/M-SDE3FGHIRWY/LB1

Departure

Time 2026-05-08 07:17
Airport Jinnah International Airport (OPKC)

Arrival

Time 2026-05-08 08:45
Airport Allama Iqbal International Airport (OPLA)
Time Latitude Longitude Altitude Speed Heading
2026-05-08 06:48 24.90245 67.16647 101 ft 0 kts 204°
2026-05-08 07:09 24.90261 67.16654 101 ft 4 kts 204°
2026-05-08 07:09 24.90286 67.16667 101 ft 4 kts 204°
2026-05-08 07:09 24.90310 67.16679 100 ft 4 kts 203°
2026-05-08 07:09 24.90333 67.16690 101 ft 4 kts 216°
2026-05-08 07:10 24.90345 67.16706 100 ft 4 kts 295°
2026-05-08 07:10 24.90327 67.16724 100 ft 4 kts 333°
2026-05-08 07:10 24.90305 67.16734 100 ft 1 kts 345°
2026-05-08 07:10 24.90304 67.16734 100 ft 1 kts 345°
2026-05-08 07:13 24.90309 67.16733 100 ft 2 kts 345°
2026-05-08 07:13 24.90343 67.16723 100 ft 5 kts 343°
2026-05-08 07:13 24.90385 67.16710 101 ft 7 kts 343°
2026-05-08 07:13 24.90439 67.16696 101 ft 9 kts 355°
2026-05-08 07:14 24.90476 67.16711 102 ft 9 kts 43°
2026-05-08 07:14 24.90497 67.16780 102 ft 10 kts 76°
2026-05-08 07:14 24.90518 67.16863 102 ft 12 kts 75°
2026-05-08 07:14 24.90542 67.16957 101 ft 14 kts 75°
2026-05-08 07:15 24.90587 67.17012 102 ft 10 kts 351°
2026-05-08 07:15 24.90655 67.16993 104 ft 10 kts 343°
2026-05-08 07:15 24.90710 67.16974 107 ft 7 kts 342°
2026-05-08 07:15 24.90738 67.16937 107 ft 7 kts 270°
2026-05-08 07:16 24.90691 67.16751 106 ft 53 kts 255°
2026-05-08 07:16 24.90596 67.16378 102 ft 95 kts 255°
2026-05-08 07:16 24.90370 67.15496 105 ft 142 kts 253°
2026-05-08 07:16 24.90107 67.14383 483 ft 150 kts 252°
2026-05-08 07:17 24.89851 67.13259 1089 ft 154 kts 258°
2026-05-08 07:17 24.90183 67.12118 1673 ft 169 kts 313°
2026-05-08 07:17 24.91294 67.11566 2130 ft 188 kts 352°
2026-05-08 07:17 24.92631 67.11916 2343 ft 214 kts 34°
2026-05-08 07:18 24.93834 67.13021 2506 ft 238 kts 41°
2026-05-08 07:18 24.95132 67.14288 2740 ft 262 kts 40°
2026-05-08 07:18 24.96547 67.15673 3153 ft 279 kts 41°
2026-05-08 07:18 24.98002 67.17097 3890 ft 280 kts 41°
2026-05-08 07:19 24.99459 67.18522 4675 ft 279 kts 40°
2026-05-08 07:19 25.00901 67.19925 5421 ft 280 kts 39°
2026-05-08 07:19 25.02364 67.21343 6125 ft 281 kts 40°
2026-05-08 07:19 25.03848 67.22778 6767 ft 285 kts 41°
2026-05-08 07:20 25.05346 67.24228 7444 ft 288 kts 41°
2026-05-08 07:20 25.06856 67.25693 8140 ft 290 kts 41°
2026-05-08 07:20 25.08376 67.27170 8835 ft 292 kts 41°
2026-05-08 07:20 25.09906 67.28658 9551 ft 294 kts 41°
2026-05-08 07:21 25.11444 67.30155 10141 ft 299 kts 41°
2026-05-08 07:21 25.13066 67.31731 10286 ft 321 kts 41°
2026-05-08 07:21 25.14793 67.33405 10395 ft 341 kts 41°
2026-05-08 07:21 25.16624 67.35179 10524 ft 359 kts 41°
2026-05-08 07:22 25.18543 67.37042 10670 ft 374 kts 41°
2026-05-08 07:22 25.20518 67.38962 11065 ft 380 kts 41°
2026-05-08 07:22 25.22520 67.40909 11599 ft 383 kts 41°
2026-05-08 07:22 25.24501 67.42838 12111 ft 386 kts 41°
2026-05-08 07:23 25.26552 67.44836 12645 ft 389 kts 41°
2026-05-08 07:23 25.28553 67.46788 13192 ft 391 kts 41°
2026-05-08 07:23 25.30601 67.48788 13699 ft 394 kts 41°
2026-05-08 07:23 25.32657 67.50797 14201 ft 395 kts 41°
2026-05-08 07:24 25.34720 67.52811 14723 ft 396 kts 40°
2026-05-08 07:24 25.36791 67.54830 15216 ft 398 kts 40°
2026-05-08 07:24 25.38874 67.56861 15750 ft 399 kts 40°
2026-05-08 07:24 25.40967 67.58903 16177 ft 403 kts 40°
2026-05-08 07:25 25.43077 67.60964 16634 ft 406 kts 40°
2026-05-08 07:25 25.45200 67.63041 17100 ft 408 kts 40°
2026-05-08 07:25 25.49473 67.67234 18068 ft 412 kts 40°
2026-05-08 07:26 25.51623 67.69344 18472 ft 414 kts 40°
2026-05-08 07:26 25.53788 67.71473 18845 ft 417 kts 40°
2026-05-08 07:26 25.55967 67.73613 19218 ft 420 kts 39°
2026-05-08 07:26 25.58165 67.75765 19586 ft 423 kts 39°
2026-05-08 07:27 25.60380 67.77929 19959 ft 426 kts 39°
2026-05-08 07:27 25.62607 67.80105 20317 ft 429 kts 39°
2026-05-08 07:27 25.64821 67.82276 20674 ft 432 kts 39°
2026-05-08 07:27 25.67075 67.84494 21031 ft 435 kts 39°
2026-05-08 07:28 25.69372 67.86756 21380 ft 437 kts 39°
2026-05-08 07:28 25.71654 67.89004 21724 ft 440 kts 39°
2026-05-08 07:28 25.73921 67.91234 22072 ft 442 kts 38°
2026-05-08 07:28 25.76231 67.93506 22386 ft 445 kts 38°
2026-05-08 07:29 25.78555 67.95795 22714 ft 448 kts 38°
2026-05-08 07:29 25.80887 67.98096 23036 ft 450 kts 38°
2026-05-08 07:29 25.83241 68.00418 23352 ft 453 kts 38°
2026-05-08 07:29 25.85600 68.02744 23624 ft 455 kts 38°
2026-05-08 07:30 25.87974 68.05089 23870 ft 457 kts 38°
2026-05-08 07:30 25.90353 68.07444 24135 ft 459 kts 38°
2026-05-08 07:30 25.92739 68.09807 24414 ft 460 kts 38°
2026-05-08 07:30 25.95137 68.12184 24687 ft 462 kts 38°
2026-05-08 07:31 25.97544 68.14567 24966 ft 463 kts 38°
2026-05-08 07:31 25.99949 68.16946 25344 ft 462 kts 38°
2026-05-08 07:31 26.02337 68.19314 25750 ft 460 kts 37°
2026-05-08 07:31 26.04723 68.21685 26174 ft 459 kts 37°
2026-05-08 07:32 26.07102 68.24047 26605 ft 457 kts 37°
2026-05-08 07:32 26.09438 68.26366 27030 ft 455 kts 37°
2026-05-08 07:32 26.11828 68.28741 27450 ft 454 kts 36°
2026-05-08 07:32 26.14151 68.31051 27858 ft 453 kts 36°
2026-05-08 07:33 26.16500 68.33386 28274 ft 452 kts 36°
2026-05-08 07:33 26.18829 68.35704 28682 ft 451 kts 36°
2026-05-08 07:33 26.21167 68.38033 29107 ft 450 kts 36°
2026-05-08 07:33 26.23539 68.40295 29534 ft 448 kts 33°
2026-05-08 07:34 26.25974 68.42443 29943 ft 445 kts 31°
2026-05-08 07:34 26.28445 68.44505 30284 ft 443 kts 30°
2026-05-08 07:34 26.30933 68.46530 30644 ft 442 kts 29°
2026-05-08 07:34 26.33418 68.48555 30994 ft 442 kts 29°
2026-05-08 07:35 26.35888 68.50597 31347 ft 442 kts 30°
2026-05-08 07:35 26.38343 68.52662 31707 ft 442 kts 30°
2026-05-08 07:35 26.40784 68.54746 32121 ft 441 kts 29°
2026-05-08 07:35 26.43210 68.56832 32529 ft 440 kts 29°
2026-05-08 07:36 26.45631 68.58915 32917 ft 439 kts 29°
2026-05-08 07:36 26.48043 68.60981 33307 ft 438 kts 28°
2026-05-08 07:36 26.50465 68.63049 33686 ft 437 kts 28°
2026-05-08 07:36 26.52879 68.65110 34006 ft 436 kts 28°
2026-05-08 07:37 26.55293 68.67172 34283 ft 437 kts 28°
2026-05-08 07:37 26.57712 68.69236 34531 ft 438 kts 28°
2026-05-08 07:37 26.60103 68.71275 34768 ft 438 kts 28°
2026-05-08 07:37 26.62560 68.73370 35015 ft 439 kts 28°
2026-05-08 07:38 26.64960 68.75412 35250 ft 440 kts 28°
2026-05-08 07:38 26.67398 68.77485 35479 ft 440 kts 29°
2026-05-08 07:38 26.69840 68.79561 35709 ft 441 kts 29°
2026-05-08 07:38 26.72282 68.81642 35935 ft 442 kts 29°
2026-05-08 07:39 26.74729 68.83729 36163 ft 442 kts 29°
2026-05-08 07:39 26.77180 68.85821 36383 ft 443 kts 29°
2026-05-08 07:39 26.79628 68.87911 36621 ft 443 kts 29°
2026-05-08 07:39 26.82081 68.90008 36747 ft 445 kts 29°
2026-05-08 07:40 26.84564 68.92129 36778 ft 450 kts 29°
2026-05-08 07:40 26.89605 68.96433 36769 ft 458 kts 30°
2026-05-08 07:41 26.94649 69.00756 36771 ft 460 kts 30°
2026-05-08 07:41 26.99730 69.05115 36768 ft 460 kts 30°
2026-05-08 07:42 27.04810 69.09476 36774 ft 460 kts 30°
2026-05-08 07:42 27.09894 69.13850 36788 ft 460 kts 29°
2026-05-08 07:43 27.14974 69.18213 36788 ft 460 kts 29°
2026-05-08 07:43 27.20048 69.22588 36798 ft 459 kts 29°
2026-05-08 07:44 27.25112 69.26962 36797 ft 459 kts 29°
2026-05-08 07:44 27.30157 69.31361 36792 ft 459 kts 30°
2026-05-08 07:45 27.35174 69.35838 36787 ft 460 kts 30°
2026-05-08 07:45 27.40142 69.40289 36800 ft 459 kts 30°
2026-05-08 07:46 27.45150 69.44766 36793 ft 459 kts 30°
2026-05-08 07:46 27.50150 69.49225 36790 ft 458 kts 29°
2026-05-08 07:47 27.55151 69.53692 36802 ft 458 kts 29°
2026-05-08 07:47 27.60144 69.58162 36797 ft 458 kts 29°
2026-05-08 07:48 27.65129 69.62631 36792 ft 457 kts 29°
2026-05-08 07:48 27.70108 69.67095 36786 ft 457 kts 29°
2026-05-08 07:49 27.75051 69.71527 36796 ft 456 kts 29°
2026-05-08 07:49 27.80022 69.75990 36794 ft 456 kts 29°
2026-05-08 07:50 27.84985 69.80465 36789 ft 456 kts 29°
2026-05-08 07:50 27.89935 69.84943 36785 ft 455 kts 29°
2026-05-08 07:51 27.94795 69.89325 36800 ft 455 kts 29°
2026-05-08 07:51 27.99712 69.93757 36795 ft 454 kts 29°
2026-05-08 07:52 28.04653 69.98227 36809 ft 454 kts 29°
2026-05-08 07:52 28.08235 70.01470 36800 ft 454 kts 29°
2026-05-08 07:53 28.12555 70.05385 36796 ft 454 kts 29°
2026-05-08 07:53 28.17483 70.09853 36792 ft 454 kts 29°
2026-05-08 07:54 28.22404 70.14321 36791 ft 454 kts 29°
2026-05-08 07:54 28.27336 70.18807 36796 ft 454 kts 29°
2026-05-08 07:55 28.32253 70.23296 36802 ft 454 kts 29°
2026-05-08 07:55 28.37109 70.27895 36811 ft 461 kts 36°
2026-05-08 07:56 28.41516 70.33249 36802 ft 464 kts 37°
2026-05-08 07:56 28.45912 70.38627 36801 ft 464 kts 37°
2026-05-08 07:57 28.50280 70.43978 36801 ft 464 kts 37°
2026-05-08 07:57 28.54671 70.49371 36799 ft 464 kts 37°
2026-05-08 07:58 28.59072 70.54773 36814 ft 464 kts 37°
2026-05-08 07:58 28.63461 70.60162 36810 ft 464 kts 37°
2026-05-08 07:59 28.67847 70.65558 36806 ft 464 kts 37°
2026-05-08 07:59 28.72230 70.70959 36813 ft 464 kts 37°
2026-05-08 08:00 28.76616 70.76383 36810 ft 464 kts 37°
2026-05-08 08:00 28.80965 70.81762 36798 ft 464 kts 37°
2026-05-08 08:01 28.85342 70.87180 36797 ft 464 kts 37°
2026-05-08 08:01 28.89718 70.92605 36819 ft 464 kts 38°
2026-05-08 08:02 28.93345 70.97113 36813 ft 464 kts 38°
2026-05-08 08:02 28.97698 71.02529 36818 ft 463 kts 38°
2026-05-08 08:03 29.02744 71.08879 36815 ft 466 kts 39°
2026-05-08 08:03 29.06187 71.13647 36831 ft 469 kts 42°
2026-05-08 08:04 29.10224 71.19516 36820 ft 469 kts 42°
2026-05-08 08:04 29.14278 71.25361 36818 ft 468 kts 41°
2026-05-08 08:05 29.18344 71.31116 36817 ft 467 kts 41°
2026-05-08 08:05 29.22445 71.36893 36814 ft 468 kts 41°
2026-05-08 08:06 29.26541 71.42698 36815 ft 468 kts 41°
2026-05-08 08:06 29.30612 71.48482 36814 ft 468 kts 41°
2026-05-08 08:07 29.34711 71.54291 36814 ft 468 kts 41°
2026-05-08 08:07 29.38775 71.60054 36830 ft 467 kts 41°
2026-05-08 08:08 29.42841 71.65835 36818 ft 465 kts 41°
2026-05-08 08:08 29.46902 71.71622 36821 ft 465 kts 41°
2026-05-08 08:09 29.50965 71.77399 36815 ft 465 kts 41°
2026-05-08 08:09 29.55035 71.83198 36816 ft 465 kts 41°
2026-05-08 08:10 29.59063 71.88950 36821 ft 465 kts 42°
2026-05-08 08:10 29.63108 71.94741 36835 ft 465 kts 42°
2026-05-08 08:11 29.67149 72.00546 36814 ft 464 kts 42°
2026-05-08 08:11 29.71175 72.06340 36815 ft 463 kts 42°
2026-05-08 08:12 29.75203 72.12136 36831 ft 463 kts 42°
2026-05-08 08:12 29.79199 72.17894 36824 ft 463 kts 42°
2026-05-08 08:13 29.83216 72.23683 36825 ft 462 kts 42°
2026-05-08 08:13 29.87235 72.29480 36843 ft 462 kts 42°
2026-05-08 08:14 29.91251 72.35271 36837 ft 462 kts 42°
2026-05-08 08:14 29.95268 72.41081 36833 ft 462 kts 42°
2026-05-08 08:15 29.99241 72.46844 36829 ft 462 kts 42°
2026-05-08 08:15 30.03241 72.52652 36828 ft 462 kts 43°
2026-05-08 08:16 30.07237 72.58462 36824 ft 462 kts 43°
2026-05-08 08:16 30.11229 72.64278 36844 ft 462 kts 43°
2026-05-08 08:17 30.15223 72.70110 36842 ft 462 kts 43°
2026-05-08 08:17 30.19210 72.75933 36838 ft 462 kts 43°
2026-05-08 08:18 30.23162 72.81717 36725 ft 463 kts 43°
2026-05-08 08:18 30.25156 72.84633 36354 ft 462 kts 43°
2026-05-08 08:18 30.27148 72.87547 35998 ft 462 kts 43°
2026-05-08 08:18 30.29143 72.90472 35646 ft 463 kts 43°
2026-05-08 08:19 30.31136 72.93394 35285 ft 463 kts 43°
2026-05-08 08:19 30.33136 72.96327 34966 ft 464 kts 44°
2026-05-08 08:19 30.35140 72.99264 34621 ft 465 kts 44°
2026-05-08 08:19 30.37138 73.02203 34280 ft 465 kts 44°
2026-05-08 08:20 30.39135 73.05152 33950 ft 466 kts 44°
2026-05-08 08:20 30.41145 73.08119 33591 ft 466 kts 45°
2026-05-08 08:20 30.43152 73.11078 33216 ft 467 kts 45°
2026-05-08 08:20 30.45130 73.13994 32826 ft 467 kts 45°
2026-05-08 08:21 30.47137 73.16954 32450 ft 468 kts 45°
2026-05-08 08:21 30.49156 73.19935 32072 ft 469 kts 45°
2026-05-08 08:21 30.51167 73.22910 31692 ft 469 kts 45°
2026-05-08 08:21 30.53183 73.25897 31337 ft 470 kts 46°
2026-05-08 08:22 30.55204 73.28889 30983 ft 471 kts 46°
2026-05-08 08:22 30.57226 73.31874 30649 ft 471 kts 47°
2026-05-08 08:22 30.59250 73.34867 30295 ft 471 kts 47°
2026-05-08 08:22 30.61248 73.37824 29960 ft 472 kts 47°
2026-05-08 08:23 30.63298 73.40860 29550 ft 472 kts 47°
2026-05-08 08:23 30.65297 73.43829 29144 ft 473 kts 47°
2026-05-08 08:23 30.67345 73.46882 28740 ft 474 kts 48°
2026-05-08 08:23 30.69349 73.49875 28355 ft 474 kts 48°
2026-05-08 08:24 30.71381 73.52905 27961 ft 475 kts 48°
2026-05-08 08:24 30.73416 73.55938 27573 ft 476 kts 48°
2026-05-08 08:24 30.75448 73.58969 27191 ft 476 kts 49°
2026-05-08 08:24 30.77485 73.62008 26812 ft 476 kts 49°
2026-05-08 08:25 30.79519 73.65044 26434 ft 477 kts 49°
2026-05-08 08:25 30.81563 73.68096 26089 ft 476 kts 49°
2026-05-08 08:25 30.83571 73.71102 25733 ft 477 kts 49°
2026-05-08 08:25 30.85614 73.74147 25377 ft 477 kts 49°
2026-05-08 08:26 30.87719 73.77125 25021 ft 477 kts 47°
2026-05-08 08:26 30.89903 73.80050 24674 ft 477 kts 46°
2026-05-08 08:26 30.92125 73.82930 24329 ft 478 kts 45°
2026-05-08 08:26 30.94342 73.85776 23994 ft 478 kts 45°
2026-05-08 08:27 30.96571 73.88656 23657 ft 479 kts 46°
2026-05-08 08:27 30.98755 73.91518 23319 ft 478 kts 46°
2026-05-08 08:27 31.00944 73.94427 22931 ft 475 kts 46°
2026-05-08 08:27 31.03106 73.97325 22523 ft 473 kts 46°
2026-05-08 08:28 31.05257 74.00217 22135 ft 470 kts 46°
2026-05-08 08:28 31.07376 74.03061 21764 ft 466 kts 46°
2026-05-08 08:28 31.09498 74.05907 21380 ft 463 kts 46°
2026-05-08 08:28 31.11604 74.08731 21018 ft 460 kts 46°
2026-05-08 08:29 31.13740 74.11503 20648 ft 456 kts 41°
2026-05-08 08:29 31.16194 74.13805 20281 ft 450 kts 30°
2026-05-08 08:29 31.18946 74.15467 19924 ft 444 kts 19°
2026-05-08 08:29 31.21894 74.16457 19578 ft 439 kts
2026-05-08 08:30 31.24846 74.17108 19234 ft 437 kts
2026-05-08 08:30 31.27823 74.17773 18886 ft 431 kts
2026-05-08 08:30 31.33513 74.19067 18058 ft 400 kts
2026-05-08 08:31 31.36171 74.19676 17542 ft 378 kts
2026-05-08 08:31 31.38690 74.20253 17038 ft 359 kts
2026-05-08 08:31 31.41098 74.20802 16386 ft 347 kts
2026-05-08 08:31 31.43446 74.21333 15567 ft 341 kts
2026-05-08 08:32 31.45734 74.21847 14771 ft 337 kts
2026-05-08 08:32 31.48029 74.22364 13969 ft 334 kts
2026-05-08 08:32 31.50301 74.22877 13141 ft 331 kts
2026-05-08 08:32 31.52549 74.23385 12330 ft 327 kts
2026-05-08 08:33 31.54773 74.23887 11482 ft 324 kts
2026-05-08 08:33 31.56993 74.24391 10518 ft 326 kts
2026-05-08 08:33 31.59220 74.24901 9583 ft 326 kts
2026-05-08 08:33 31.61456 74.25374 8572 ft 325 kts
2026-05-08 08:34 31.63681 74.25122 7596 ft 323 kts 341°
2026-05-08 08:34 31.65647 74.23962 6846 ft 317 kts 329°
2026-05-08 08:34 31.67674 74.23048 6166 ft 312 kts 351°
2026-05-08 08:34 31.69821 74.23131 5479 ft 307 kts 12°
2026-05-08 08:35 31.71874 74.23743 4835 ft 302 kts 15°
2026-05-08 08:35 31.73790 74.24634 4371 ft 289 kts 38°
2026-05-08 08:35 31.74964 74.26399 4177 ft 266 kts 72°
2026-05-08 08:35 31.75061 74.28450 4070 ft 245 kts 104°
2026-05-08 08:36 31.74341 74.30183 4016 ft 232 kts 132°
2026-05-08 08:36 31.73184 74.31445 4020 ft 225 kts 134°
2026-05-08 08:36 31.72326 74.32964 4028 ft 225 kts 110°
2026-05-08 08:36 31.71814 74.34708 4019 ft 223 kts 112°
2026-05-08 08:37 31.71241 74.36384 4021 ft 217 kts 112°
2026-05-08 08:37 31.70718 74.37990 4020 ft 202 kts 112°
2026-05-08 08:37 31.70114 74.39288 3993 ft 186 kts 130°
2026-05-08 08:40 31.70022 74.39415 3993 ft 184 kts 134°
2026-05-08 08:40 31.69102 74.40289 3961 ft 160 kts 151°
2026-05-08 08:40 31.68072 74.40695 3675 ft 153 kts 170°
2026-05-08 08:41 31.67041 74.40732 3443 ft 150 kts 180°
2026-05-08 08:41 31.66009 74.40710 3228 ft 147 kts 180°
2026-05-08 08:41 31.64992 74.40692 3009 ft 147 kts 180°
2026-05-08 08:41 31.63961 74.40675 2814 ft 148 kts 179°
2026-05-08 08:42 31.62933 74.40657 2612 ft 148 kts 180°
2026-05-08 08:42 31.61905 74.40636 2415 ft 147 kts 180°
2026-05-08 08:42 31.60891 74.40615 2214 ft 147 kts 179°
2026-05-08 08:42 31.59869 74.40595 2014 ft 147 kts 180°
2026-05-08 08:43 31.58847 74.40576 1819 ft 146 kts 180°
2026-05-08 08:43 31.57831 74.40559 1622 ft 146 kts 180°
2026-05-08 08:43 31.56816 74.40539 1424 ft 146 kts 180°
2026-05-08 08:43 31.55800 74.40519 1214 ft 146 kts 179°
2026-05-08 08:44 31.54792 74.40484 985 ft 145 kts 178°
2026-05-08 08:44 31.53785 74.40481 802 ft 144 kts 178°
2026-05-08 08:44 31.52808 74.40475 725 ft 127 kts 180°
2026-05-08 08:44 31.52098 74.40458 723 ft 78 kts 181°
2026-05-08 08:45 31.51705 74.40456 723 ft 45 kts 180°
2026-05-08 08:45 31.51516 74.40488 723 ft 9 kts 120°
2026-05-08 08:45 31.51516 74.40571 724 ft 12 kts 86°
2026-05-08 08:45 31.51573 74.40653 724 ft 16 kts 16°
2026-05-08 08:46 31.51693 74.40660 723 ft 19 kts 359°
2026-05-08 08:46 31.51834 74.40662 722 ft 21 kts
2026-05-08 08:46 31.51988 74.40665 725 ft 24 kts 358°
2026-05-08 08:46 31.52138 74.40666 722 ft 20 kts
2026-05-08 08:47 31.52284 74.40671 725 ft 22 kts
2026-05-08 08:47 31.52402 74.40723 722 ft 18 kts 66°
2026-05-08 08:47 31.52360 74.40844 722 ft 17 kts 167°
2026-05-08 08:47 31.52235 74.40845 723 ft 19 kts 180°
2026-05-08 08:48 31.52129 74.40839 723 ft 13 kts 205°
2026-05-08 08:48 31.52124 74.40800 723 ft 2 kts 277°
2026-05-08 08:48 31.52125 74.40773 722 ft 4 kts 271°
2026-05-08 08:48 31.52125 74.40764 722 ft 0 kts 269°